Temperature
11 11 11 11 11 11 11 11 10 10 10 10 10 10 10 10 10 10 10 10 9 9 9 9 8 8 8 8 8 8 8 8 7 7 7 7 7 7 6 6 6 6 6
12 11 11 11 11 11 11 10 10 10 10 10 10 10 10 10 10 10 10 10 10 9 9 9 9 8 8 8 8 8 8 8 7 7 7 7 6 6 6 6 6 5 5
11 11 11 11 11 11 10 10 10 10 10 10 10 10 10 10 10 10 10 10 10 9 9 9 9 8 8 8 8 8 8 7 7 7 7 6 6 6 6 5 5 5 5
11 11 11 11 11 10 10 10 10 10 10 10 10 10 10 10 10 10 10 10 9 9 9 9 9 9 8 8 8 8 8 7 7 7 6 6 6 6 5 5 5 4 4
11 11 11 11 11 10 10 10 10 10 10 10 10 10 10 10 10 10 10 10 9 9 9 9 9 9 9 8 8 8 8 7 7 6 6 6 5 5 5 5 4 4 4
11 11 11 11 11 10 10 10 10 10 10 10 10 9 9 9 9 10 9 9 9 9 9 9 9 9 8 8 8 8 7 7 7 6 6 5 5 5 5 4 4 4 3
11 11 11 11 11 10 10 10 10 10 9 9 9 9 9 9 9 9 9 9 9 9 9 9 9 9 8 8 8 7 7 7 6 6 5 5 5 5 4 4 4 3 3
12 11 11 11 11 10 10 10 10 10 10 9 9 9 9 9 9 9 9 9 9 9 9 9 8 8 8 8 8 7 7 7 6 6 5 5 4 4 4 3 3 3 3
12 12 12 11 11 11 11 10 10 10 10 10 9 9 10 10 10 10 10 9 9 9 9 9 8 8 8 8 7 7 7 6 6 5 5 4 4 4 3 3 3 2 2
12 12 12 11 11 11 11 11 10 10 10 10 9 9 10 10 10 9 9 9 9 9 9 8 8 8 8 7 7 7 6 6 5 5 5 4 4 3 3 2 2 2 2
12 12 12 11 11 11 11 11 10 10 10 10 10 10 9 9 9 9 9 10 9 9 9 8 8 8 7 7 7 6 6 6 5 5 4 4 3 3 2 2 2 2 1
12 12 12 11 11 11 11 11 11 10 10 10 10 10 10 9 9 9 9 9 9 9 9 8 8 8 7 7 7 6 6 5 5 4 4 3 3 3 2 2 1 1 1
12 12 12 12 12 12 11 11 10 10 10 10 10 10 9 9 9 9 9 8 8 8 8 8 8 7 7 7 6 6 5 5 4 4 3 3 2 2 2 1 1 1 0
14 14 13 12 12 12 11 11 10 10 10 10 10 9 9 9 9 8 8 8 8 8 8 8 8 7 7 6 6 5 5 4 4 3 3 2 2 1 1 1 0 -0 -0
14 13 13 12 12 12 11 11 10 10 10 10 9 9 9 9 8 8 8 7 7 7 7 7 7 7 6 6 5 5 4 4 3 3 2 1 1 1 0 -0 -1 -1 -1
13 13 13 12 12 12 11 11 10 10 10 9 9 9 9 8 8 8 7 7 7 6 6 6 6 6 5 5 4 4 4 3 3 2 2 1 0 0 -0 -1 -1 -2 -2
13 13 13 12 12 11 11 10 10 10 9 9 9 9 8 8 8 8 7 7 7 6 6 6 6 5 5 4 4 3 3 3 2 2 1 0 -0 -0 -1 -1 -2 -2 -2
13 13 12 12 12 11 11 11 10 10 9 9 9 8 8 8 8 7 7 7 6 6 5 5 5 5 4 4 3 3 2 2 1 1 1 -0 -1 -1 -1 -2 -2 -3 -3
12 12 12 12 11 11 11 10 10 10 9 9 8 8 8 8 7 7 7 7 6 6 5 5 4 4 4 3 3 2 2 1 1 0 -0 -1 -1 -1 -2 -2 -3 -3 -3
12 12 12 12 11 11 10 10 10 9 9 8 8 8 8 7 7 7 7 6 6 5 5 4 4 3 3 3 2 2 2 1 0 -0 -0 -1 -1 -2 -2 -3 -3 -3 -4
12 12 12 11 11 10 10 10 9 9 9 8 8 8 7 7 7 7 6 6 5 5 4 4 3 3 2 2 1 1 0 0 -0 -1 -1 -1 -2 -2 -3 -3 -3 -4 -4
12 11 11 11 11 10 10 10 9 9 8 8 8 8 7 7 7 6 6 5 5 4 4 3 3 2 2 1 1 -0 -1 -1 -1 -2 -2 -2 -2 -3 -3 -4 -4 -5 -5
11 11 11 11 10 10 10 9 9 9 8 8 8 8 7 7 6 6 5 5 4 4 3 3 2 2 1 0 -0 -1 -1 -1 -2 -2 -3 -2 -3 -3 -4 -4 -5 -5 -6
11 11 11 11 10 10 10 9 9 8 8 8 8 7 7 7 6 6 5 5 4 4 3 2 2 1 1 -0 -1 -1 -2 -2 -2 -3 -3 -4 -4 -4 -4 -4 -5 -5 -6
11 11 10 10 10 10 9 9 8 8 8 8 7 7 7 6 6 5 5 4 4 3 2 2 1 1 0 -1 -1 -2 -2 -3 -3 -3 -4 -5 -5 -5 -4 -4 -5 -6 -6
11 11 10 10 10 9 9 9 8 8 8 7 7 7 6 5 5 4 4 4 3 3 2 1 1 0 -0 -1 -1 -2 -3 -3 -4 -5 -5 -6 -6 -7 -6 -5 -5 -6 -6
Wind_Speed
7 8 9 10 10 10 9 7 6 5 4 5 7 8 8 9 8 8 7 7 6 6 6 6 7 7 7 7 8 8 8 9 9 10 10 11 11 11 12 12 13 13 13
11 9 7 8 9 10 10 9 7 5 4 5 5 7 8 9 8 8 7 6 6 5 5 5 5 5 5 6 6 7 7 8 8 9 10 10 11 11 12 12 12 13 14
15 12 7 6 9 12 11 8 6 5 4 4 4 5 6 7 8 8 7 6 5 5 4 4 3 3 3 4 4 5 6 7 7 8 9 10 10 11 12 12 13 13 13
18 13 8 7 11 11 9 5 4 4 3 3 3 2 3 5 6 7 7 6 6 5 4 3 2 1 1 2 3 4 5 6 7 8 9 10 10 11 12 12 13 14 14
20 14 9 9 13 9 6 6 4 4 4 4 3 2 2 2 4 6 6 7 7 6 5 4 3 1 1 1 2 3 4 6 7 8 9 10 11 12 13 13 14 14 15
19 15 10 10 12 7 6 5 5 4 4 4 3 2 1 1 2 4 5 6 7 8 7 5 4 3 3 3 3 4 5 6 7 8 9 10 12 13 14 14 15 16 16
19 14 8 9 9 8 8 8 5 5 3 3 3 2 3 2 1 2 3 4 6 8 8 7 7 6 5 4 5 5 6 7 8 9 10 11 12 13 14 15 16 16 17
18 15 11 10 9 8 9 8 6 5 3 4 4 3 0 3 3 2 2 4 4 5 6 8 8 8 7 6 6 6 7 8 9 10 11 12 13 14 15 16 17 17 18
18 15 13 11 10 10 10 9 9 8 5 4 3 4 4 4 3 2 3 3 4 3 4 7 8 9 9 8 8 8 8 9 10 11 12 13 14 15 16 17 18 18 19
16 17 15 13 12 10 10 10 9 6 7 5 3 2 3 4 3 2 3 2 3 4 4 4 6 8 9 8 8 8 8 9 10 12 13 14 15 16 17 18 19 19 20
14 15 15 13 13 11 11 11 9 8 7 6 5 3 2 1 2 3 3 3 3 4 4 4 5 7 8 8 8 8 8 9 11 12 13 14 16 17 18 19 19 20 20
11 14 14 13 12 11 12 11 11 11 9 7 6 5 4 4 4 4 4 3 3 3 3 3 4 6 7 7 8 7 8 9 11 12 13 15 16 17 18 19 20 20 21
11 16 15 14 13 11 11 10 11 11 10 9 8 6 5 4 4 4 3 3 3 3 2 2 3 5 6 7 7 7 8 10 11 12 14 15 16 17 18 19 20 21 21
14 14 15 14 13 12 12 11 10 10 9 10 9 8 5 5 4 4 4 3 1 2 2 4 2 4 6 6 8 7 8 10 12 12 13 15 16 17 18 19 19 20 21
11 13 14 13 12 13 13 12 10 10 9 9 8 8 6 5 4 4 4 4 4 3 4 4 3 2 5 6 7 6 8 10 11 12 14 15 16 17 18 19 19 20 21
12 13 14 13 13 13 13 12 8 9 10 9 7 8 7 5 4 4 4 3 4 5 4 3 3 2 2 3 5 6 8 9 11 13 15 15 16 17 18 18 19 20 20
14 14 15 14 14 13 12 12 11 11 11 9 8 9 8 6 5 4 4 3 3 4 5 3 2 1 1 2 4 5 7 8 9 13 14 15 16 17 17 18 19 19 20
14 14 13 14 14 13 13 13 13 12 12 11 10 9 8 6 6 5 4 5 4 4 4 4 2 2 2 2 2 3 5 7 9 12 13 15 16 16 17 18 18 18 18
14 13 13 14 14 13 13 13 12 12 12 11 10 10 9 8 7 5 5 5 4 3 3 3 3 1 1 1 2 3 4 5 8 11 12 14 15 16 16 17 17 18 18
14 14 14 14 13 13 12 12 11 11 10 9 9 10 10 10 10 8 6 5 4 3 2 2 2 2 2 2 1 3 4 3 5 7 9 12 14 15 15 16 17 17 18
14 13 13 12 12 11 11 12 11 11 10 9 8 9 9 10 10 8 6 6 5 4 3 2 2 1 2 2 2 2 4 4 5 3 4 7 8 8 11 14 15 16 17
13 13 13 13 13 11 14 17 14 10 10 10 9 8 7 8 8 9 8 8 8 6 5 3 3 3 4 3 2 2 2 3 4 3 3 6 4 5 7 10 14 16 16
13 13 13 13 13 13 17 18 17 11 10 10 9 8 6 6 8 6 7 7 6 6 6 5 4 5 4 4 2 2 2 3 4 4 2 4 3 5 7 11 15 15 16
13 13 13 13 12 12 18 18 17 11 9 9 9 9 8 7 7 8 6 5 3 3 3 3 4 4 3 2 3 2 3 2 3 3 1 3 3 5 7 9 12 13 16
11 11 12 12 12 12 17 18 17 9 8 8 7 8 8 7 10 10 7 6 3 1 1 2 2 1 0 0 1 2 1 2 4 3 1 2 3 6 5 4 8 13 16
11 11 10 11 12 12 16 19 18 9 8 7 6 6 9 9 11 11 8 7 5 3 2 2 2 2 3 2 2 1 1 1 2 3 2 2 3 4 5 4 4 9 11
Wind_Direction
161 160 160 160 161 161 159 157 158 154 146 137 133 131 133 135 134 124 114 109 108 105 102 94 85 80 72 67 60 52 45 40 36 30 24 19 15 12 8 5 2 358 355
167 165 164 167 172 174 171 166 166 160 153 137 127 132 138 143 143 137 129 123 118 116 111 101 90 81 73 68 59 48 39 34 28 22 16 11 7 4 1 357 355 353 351
171 169 168 171 180 179 171 162 160 150 134 123 122 132 138 147 150 150 146 138 128 123 123 115 103 87 72 65 55 42 31 23 17 12 7 4 360 355 353 350 348 345 342
174 171 171 177 181 173 163 153 151 142 132 130 132 137 137 144 155 161 159 157 152 147 147 149 145 109 69 50 37 24 16 8 3 360 357 353 350 347 344 342 340 338 336
178 174 174 178 175 167 162 163 155 147 143 143 140 133 139 145 158 165 168 176 177 174 173 175 175 196 253 322 337 348 350 349 346 346 345 343 341 339 337 336 334 332 330
180 176 174 175 171 164 166 162 154 145 146 147 125 95 57 176 163 173 180 185 191 192 191 191 196 218 241 266 294 312 323 328 331 332 334 334 335 334 332 330 329 327 326
181 178 175 173 172 174 173 163 150 146 143 132 102 52 355 343 253 215 189 185 198 203 203 205 208 217 233 251 273 288 303 313 318 322 325 327 328 328 327 325 324 323 323
183 183 177 179 176 172 170 169 154 148 157 157 138 123 322 320 303 253 220 212 214 207 210 214 213 217 226 236 256 274 288 301 309 314 318 321 322 323 323 323 322 321 321
186 185 183 179 179 178 182 180 170 160 169 189 166 151 163 218 257 295 249 229 221 218 221 219 219 223 226 232 245 261 276 290 301 308 313 316 317 318 320 320 320 320 319
187 187 184 182 183 184 183 185 180 170 163 179 192 186 168 156 166 247 293 266 239 230 228 222 222 225 228 232 241 254 269 282 295 304 310 313 314 316 317 318 318 318 318
190 188 186 186 187 188 187 185 181 180 176 176 175 166 157 138 147 170 240 276 281 253 234 225 221 225 229 231 239 253 268 282 293 301 307 310 312 314 316 316 316 316 315
193 192 190 191 191 191 190 189 187 186 189 183 182 174 168 169 183 176 209 233 249 268 252 234 224 224 228 232 243 259 270 282 291 298 304 307 310 312 313 313 314 314 314
196 197 194 195 194 193 190 185 188 192 191 189 191 194 188 185 163 165 175 209 237 273 288 261 231 225 231 236 247 262 270 282 290 296 302 306 309 310 311 312 313 314 314
200 193 195 196 194 190 189 188 192 194 193 195 197 191 189 192 173 169 169 163 210 283 284 265 270 230 236 238 251 259 267 282 290 296 302 306 308 309 311 312 313 314 315
193 189 192 192 191 190 190 188 196 195 190 196 194 191 193 193 185 181 167 164 170 221 257 256 257 263 246 245 257 260 265 281 291 298 302 305 308 310 312 313 313 314 314
188 187 190 192 191 191 190 190 191 187 189 193 188 188 196 190 184 181 179 178 176 187 231 250 241 267 259 262 271 269 269 287 294 301 304 307 309 311 312 312 313 313 314
189 189 191 192 192 191 189 191 193 186 192 193 187 190 196 184 182 185 179 178 184 177 221 262 253 268 262 274 292 283 283 286 295 303 305 308 311 313 314 314 314 315 316
191 190 187 189 192 192 191 193 194 191 193 194 191 188 191 183 186 184 184 192 194 188 197 242 260 262 255 270 288 296 297 295 293 299 305 310 313 313 315 316 316 317 318
187 186 185 189 192 191 191 194 194 193 193 193 189 189 188 182 193 191 190 197 194 182 183 208 245 252 270 303 306 301 303 295 301 301 307 312 313 315 318 319 320 320 321
184 185 187 189 188 187 189 190 189 188 188 188 187 188 189 190 197 194 194 195 179 174 177 203 243 263 271 295 300 292 305 304 306 301 308 312 313 316 319 321 321 322 323
184 183 182 183 183 184 188 184 184 183 182 182 182 187 190 190 193 188 185 181 172 176 182 205 235 267 271 291 280 273 292 308 298 289 311 309 308 306 312 318 320 320 323
178 177 180 181 182 186 180 178 179 180 179 180 181 182 181 181 183 183 182 177 174 178 190 194 216 240 256 251 247 284 292 323 304 295 306 299 297 298 301 306 314 322 325
175 177 180 179 182 181 174 174 175 175 176 179 178 175 172 177 173 174 177 173 183 191 186 184 206 227 232 227 217 249 259 270 270 285 310 286 292 297 302 308 317 323 328
175 177 178 177 176 175 169 170 168 170 170 173 174 174 173 171 171 163 155 156 164 184 193 190 202 221 219 209 200 216 242 281 287 290 285 274 292 300 308 301 308 324 332
170 173 172 172 172 171 168 165 160 165 162 165 165 165 165 165 163 155 153 158 159 169 142 151 146 130 69 278 110 79 20 349 314 300 313 293 297 310 300 288 301 320 328
166 163 164 169 169 169 167 164 158 160 159 157 150 157 164 163 163 162 163 166 177 186 144 114 75 60 52 46 57 88 176 292 307 291 297 310 299 327 312 290 292 305 313
Height
1521 1523 1526 1528 1530 1532 1534 1536 1538 1539 1540 1541 1542 1543 1543 1544 1544 1545 1545 1545 1545 1544 1544 1544 1543 1542 1541 1540 1539 1537 1536 1534 1533 1531 1529 1528 1526 1524 1522 1520 1518 1516 1514
1519 1522 1524 1527 1529 1532 1534 1536 1537 1539 1540 1541 1542 1543 1544 1544 1544 1545 1545 1545 1545 1544 1544 1544 1543 1542 1541 1540 1539 1537 1536 1534 1532 1531 1529 1527 1525 1523 1521 1519 1517 1515 1512
1518 1521 1523 1526 1528 1531 1533 1535 1537 1539 1540 1541 1542 1543 1543 1544 1544 1544 1544 1545 1544 1544 1544 1543 1543 1542 1541 1540 1538 1537 1535 1534 1532 1530 1528 1526 1524 1522 1520 1518 1515 1513 1511
1516 1519 1522 1524 1527 1530 1532 1534 1536 1538 1539 1540 1541 1542 1543 1543 1544 1544 1544 1544 1544 1544 1543 1543 1542 1541 1540 1539 1538 1536 1535 1533 1531 1529 1527 1525 1523 1521 1518 1516 1514 1511 1509
1514 1517 1520 1523 1526 1528 1531 1533 1535 1537 1538 1539 1540 1541 1542 1542 1543 1543 1543 1543 1543 1543 1542 1542 1541 1540 1539 1538 1537 1535 1534 1532 1530 1528 1526 1524 1521 1519 1517 1514 1512 1509 1507
1512 1515 1518 1521 1524 1526 1529 1531 1533 1535 1537 1538 1539 1540 1541 1541 1541 1541 1541 1541 1541 1541 1541 1541 1540 1539 1538 1537 1535 1534 1532 1530 1528 1526 1524 1522 1519 1517 1514 1512 1509 1506 1504
1508 1512 1515 1518 1521 1523 1526 1529 1531 1533 1535 1536 1538 1539 1539 1539 1539 1539 1539 1539 1540 1539 1539 1539 1538 1537 1536 1535 1534 1532 1530 1528 1526 1524 1522 1520 1517 1514 1511 1509 1506 1503 1500
1505 1508 1511 1514 1517 1521 1523 1526 1528 1530 1532 1534 1535 1536 1537 1538 1536 1537 1537 1537 1537 1537 1537 1536 1536 1535 1534 1533 1531 1530 1528 1526 1524 1522 1519 1517 1514 1511 1508 1505 1503 1500 1497
1501 1504 1508 1511 1514 1517 1520 1522 1525 1527 1528 1531 1532 1534 1534 1533 1534 1534 1534 1535 1535 1535 1535 1534 1533 1532 1531 1530 1529 1527 1525 1523 1521 1519 1516 1514 1511 1508 1505 1502 1499 1495 1492
1496 1500 1504 1507 1510 1513 1516 1519 1521 1524 1526 1527 1529 1530 1532 1531 1532 1531 1532 1532 1532 1532 1532 1531 1530 1530 1528 1527 1526 1524 1522 1520 1518 1515 1513 1510 1507 1504 1501 1498 1494 1491 1488
1492 1496 1499 1503 1506 1509 1512 1515 1517 1520 1522 1523 1525 1526 1528 1528 1529 1529 1528 1529 1529 1529 1528 1528 1527 1526 1525 1524 1522 1520 1518 1516 1514 1511 1509 1506 1503 1500 1496 1493 1490 1486 1483
1486 1490 1494 1498 1501 1504 1507 1510 1513 1516 1518 1520 1522 1523 1524 1525 1525 1526 1526 1525 1525 1526 1525 1525 1524 1523 1521 1520 1518 1516 1514 1512 1509 1507 1504 1501 1498 1495 1491 1488 1484 1481 1477
1479 1483 1487 1491 1495 1499 1502 1506 1508 1511 1513 1515 1517 1519 1520 1522 1523 1523 1523 1522 1522 1522 1521 1521 1520 1519 1517 1516 1514 1512 1510 1508 1505 1502 1499 1496 1493 1489 1486 1482 1479 1475 1472
1472 1477 1481 1486 1490 1494 1497 1501 1504 1506 1509 1511 1513 1515 1516 1518 1519 1519 1520 1520 1518 1518 1517 1516 1516 1515 1513 1512 1510 1508 1506 1503 1500 1497 1494 1491 1488 1484 1481 1477 1474 1470 1466
1467 1472 1476 1481 1485 1489 1492 1496 1498 1501 1504 1506 1508 1510 1512 1513 1515 1516 1516 1516 1517 1514 1512 1512 1512 1510 1509 1507 1506 1503 1501 1499 1496 1493 1489 1486 1483 1479 1476 1472 1468 1464 1461
1461 1466 1470 1475 1479 1483 1487 1490 1493 1496 1498 1500 1503 1505 1507 1509 1510 1511 1512 1512 1512 1511 1509 1508 1507 1506 1505 1503 1501 1499 1496 1494 1491 1488 1484 1481 1478 1474 1470 1466 1463 1459 1455
1455 1460 1464 1469 1473 1477 1481 1484 1487 1490 1493 1495 1498 1500 1502 1504 1505 1507 1507 1507 1507 1507 1505 1504 1503 1502 1500 1498 1496 1494 1492 1489 1486 1483 1479 1476 1472 1469 1465 1461 1457 1454 1450
1449 1454 1459 1463 1467 1471 1475 1478 1481 1484 1487 1489 1492 1494 1497 1499 1501 1502 1502 1503 1503 1502 1501 1500 1499 1497 1496 1494 1491 1489 1487 1484 1481 1478 1475 1471 1467 1463 1459 1456 1452 1448 1445
1443 1448 1453 1457 1461 1465 1469 1472 1476 1479 1482 1484 1487 1489 1492 1494 1495 1497 1497 1498 1498 1498 1497 1495 1494 1493 1491 1489 1487 1484 1482 1479 1476 1473 1470 1466 1462 1459 1454 1451 1447 1443 1440
1437 1442 1446 1451 1456 1460 1464 1467 1471 1474 1477 1479 1482 1484 1487 1489 1490 1492 1493 1493 1493 1493 1492 1491 1489 1488 1486 1484 1482 1479 1476 1474 1471 1469 1465 1462 1458 1454 1450 1446 1443 1439 1435
1431 1436 1441 1446 1450 1454 1458 1462 1466 1469 1472 1475 1477 1480 1482 1484 1486 1487 1488 1488 1488 1488 1487 1486 1485 1483 1481 1479 1477 1474 1472 1469 1466 1464 1460 1458 1454 1450 1446 1442 1438 1434 1431
1426 1431 1436 1441 1445 1449 1453 1457 1461 1464 1467 1470 1472 1475 1477 1479 1481 1482 1483 1483 1483 1483 1482 1481 1480 1479 1477 1475 1473 1471 1468 1465 1461 1460 1455 1453 1450 1446 1442 1438 1434 1430 1427
1421 1426 1431 1435 1440 1444 1448 1452 1456 1459 1462 1465 1468 1470 1472 1474 1476 1477 1478 1479 1479 1478 1478 1478 1476 1475 1473 1472 1470 1467 1464 1461 1459 1455 1451 1447 1445 1441 1438 1434 1430 1427 1423
1415 1421 1426 1430 1435 1439 1443 1448 1451 1455 1458 1460 1463 1465 1468 1469 1471 1472 1473 1474 1474 1474 1474 1473 1472 1471 1470 1468 1466 1464 1461 1458 1455 1452 1448 1443 1439 1436 1433 1430 1427 1423 1419
1410 1416 1421 1426 1430 1435 1439 1443 1447 1450 1453 1456 1459 1461 1463 1465 1467 1468 1469 1469 1470 1470 1470 1469 1469 1467 1466 1464 1462 1460 1457 1454 1450 1448 1445 1441 1436 1431 1428 1426 1423 1419 1415
1406 1412 1417 1422 1426 1430 1435 1439 1443 1446 1449 1452 1454 1457 1459 1461 1462 1464 1465 1465 1465 1466 1466 1465 1465 1463 1462 1460 1458 1456 1453 1451 1447 1444 1441 1438 1434 1430 1424 1421 1419 1416 1411